Joplin Regional Airport Joplin US
ICAO: KJLN
IATA: JLN
Category: Large
Scheduled Services: Yes

Elevation: 981 ft
TransAlt. 18000 ft.

Airport Communications:
ATIS:120.85
KANSAS CITY CNTR:128.6
CTAF:119.8
GND:121.6
COLUMBIA RDO:122.6
TWR:119.8
UNICOM:122.95

KJLN Zoom In..

If you have problems with the map follow the link
https://www.worldairports.se/pages/airport.php?
ICAO=KJLN

Runways:

(A) RW 05 length 3604 ft width 75 ft
---- / hdg 46

(B) RW 13 length 6501 ft width 150 ft
ILS 110.30 / hdg 134

(C) RW 18 length 6500 ft width 100 ft
ILS 108.90 / hdg 178

(D) RW 23 length 3604 ft width 75 ft
---- / hdg 226

(E) RW 31 length 6501 ft width 150 ft
---- / hdg 314

(F) RW 36 length 6500 ft width 100 ft
---- / hdg 358

Location; KJLN
Day. 19 / Time. 02.53 Zulu
* Altimeter: 30.43
* Temperature: -01° c. -30.2°f.
* Wind from: 320° Speed 06 kn.
Dewpoint: -08° c.
Visibility: 10 Statute Miles.
Clouds: Clear (automated report).

KJLN 190253Z 32006KT 10SM CLR M01/M08 A3043 RMK AO2 SLP311 T10111083 51011


Wind From 320°
Speed 06 kn.

 
 
jpsmedia worldairports.se 2020   terms of use